This demonstration page uses our WeatherBlox Daily Observations layout. Learn more.

Left ArrowRight Arrow

Hourly Observations for January 28, 2017

Temp ( °F °C ) Dew Point ( °F °C ) Humidity (%) Winds ( mph kmh ) Pressure ( in mb ) Visibility ( mi km ) Precip ( " mm )
12:53 am 00:53 Clear with Mist and Fog 29 -1.7 28 -2.2 96 96 W 5 7 30.41 1030 5 8 0.00 0.00
1:07 am 01:07 Mostly Clear with Mist and Fog 29 -1.7 29 -1.7 100 100 W 5 7 30.56 1035 5 8 0.00 0.00
1:27 am 01:27 Mostly Cloudy with Mist and Fog 29 -1.7 29 -1.7 100 100 Calm 30.56 1035 5 8 0.00 0.00
1:53 am 01:53 Cloudy with Mist and Fog 32 0 31 -0.6 96 96 W 7 11 30.41 1030 6 10 0.00 0.00
2:53 am 02:53 Cloudy 32 0 31 -0.6 96 96 W 8 13 30.40 1029 9 14 0.00 0.00
3:53 am 03:53 Cloudy 32 0 31 -0.6 96 96 W 6 9 30.40 1029 8 13 0.00 0.00
4:53 am 04:53 Cloudy with Mist and Fog 31 -0.6 31 -0.6 100 100 NW 7 11 30.42 1030 6 10 0.00 0.00
5:53 am 05:53 Mostly Cloudy with Mist and Fog 30 -1.1 30 -1.1 100 100 NNW 7 11 30.42 1030 6 10 0.00 0.00
6:05 am 06:05 Partly Cloudy with Mist and Fog 30 -1.1 30 -1.1 100 100 NNW 5 7 30.50 1033 5 8 0.00 0.00
6:17 am 06:17 Mostly Cloudy with Mist and Fog 30 -1.1 29 -1.7 96 96 NNW 6 9 30.50 1033 5 8 0.00 0.00
6:53 am 06:53 Mostly Clear with Mist and Fog 29 -1.7 29 -1.7 100 100 N 6 9 30.42 1030 4 6 0.00 0.00
7:32 am 07:32 Partly Cloudy with Mist and Fog 27 -3 27 -3 100 100 NNW 3 6 30.53 1034 2 3 0.00 0.00
7:35 am 07:35 Mostly Cloudy with Mist and Fog 26 -3.3 26 -3.3 100 100 NW 3 6 30.53 1034 1 1 0.00 0.00
7:45 am 07:45 Mostly Cloudy with Freezing Fog 26 -3.3 26 -3.3 100 100 NNW 5 7 30.53 1034 0 0 0.00 0.00
7:53 am 07:53 Mostly Cloudy with Freezing Fog 26 -3.3 26 -3.3 100 100 WNW 3 6 30.43 1031 0 0 0.00 0.00
8:53 am 08:53 Mostly Cloudy with Freezing Fog 27 -2.8 27 -2.8 100 100 NW 5 7 30.46 1031 5 8 0.00 0.00
9:53 am 09:53 Mostly Cloudy with Freezing Fog 30 -1.1 30 -1.1 100 100 Calm 30.47 1032 0 0 0.00 0.00
10:11 am 10:11 Cloudy with Mist and Fog 31 -0.6 31 -0.6 100 100 W 5 7 30.56 1035 1 2 0.00 0.00
10:20 am 10:20 Cloudy with Mist and Fog 32 0 32 0 100 100 W 6 9 30.56 1035 3 4 0.00 0.00
10:27 am 10:27 Mostly Cloudy with Mist and Fog 32 0 32 0 100 100 WSW 5 7 30.56 1035 3 5 0.00 0.00
10:40 am 10:40 Mostly Cloudy with Mist and Fog 32 0 32 0 100 100 SW 5 7 30.56 1035 2 2 0.00 0.00
10:53 am 10:53 Mostly Cloudy with Mist and Fog 32 0 32 0 100 100 VRB 3 6 30.48 1032 1 1 0.00 0.00
11:06 am 11:06 Cloudy with Mist and Fog 33 0.6 33 0.6 100 100 SW 5 7 30.56 1035 2 3 0.00 0.00
11:16 am 11:16 Mostly Cloudy with Mist and Fog 34 1 34 1 100 100 SW 3 6 30.56 1035 4 6 0.00 0.00
11:32 am 11:32 Partly Cloudy with Mist and Fog 36 2 36 2 100 100 SSW 5 7 30.53 1034 6 10 0.00 0.00
11:53 am 11:53 Sunny 40 4.4 31 -0.6 70 70 W 8 13 30.43 1031 10 16 0.00 0.00
12:53 pm 12:53 Sunny 48 8.9 25 -3.9 41 41 undefined N/A 30.39 1029 10 16 0.00 0.00
1:53 pm 13:53 Sunny 50 10 22 -5.6 33 33 WSW 9 15 30.34 1028 10 16 0.00 0.00
2:53 pm 14:53 Sunny 52 11.1 14 -10 22 22 VRB 6 9 30.31 1026 10 16 0.00 0.00
3:53 pm 15:53 Sunny 53 11.7 12 -11.1 19 19 WNW 5 7 30.29 1026 10 16 0.00 0.00
4:53 pm 16:53 Sunny 54 12.2 12 -11.1 19 19 WNW 13 20 30.29 1026 10 16 0.00 0.00
5:53 pm 17:53 Sunny 52 11.1 12 -11.1 20 20 NW 7 11 30.31 1026 10 16 0.00 0.00
6:53 pm 18:53 Clear 43 6.1 19 -7.2 38 38 W 8 13 30.33 1027 10 16 0.00 0.00
7:53 pm 19:53 Clear 40 4.4 21 -6.1 47 47 W 8 13 30.35 1028 10 16 0.00 0.00
8:53 pm 20:53 Clear 37 2.8 23 -5 57 57 WNW 7 11 30.37 1029 10 16 0.00 0.00
9:53 pm 21:53 Clear 34 1.1 23 -5 64 64 WNW 6 9 30.38 1029 10 16 0.00 0.00
10:53 pm 22:53 Clear 32 0 23 -5 69 69 NW 5 7 30.39 1029 10 16 0.00 0.00
11:53 pm 23:53 Clear 30 -1.1 24 -4.4 79 79 NW 6 9 30.39 1029 10 16 0.00 0.00

Powered by AerisWeather